Location: Six Mile Lake
(44.9000°N, 79.7170°W)
Time: 18:15:56
(UTC-04:00)

ESTCUBE 1 - Pass Details

Date: 29 June 2022
Orbit: 646 x 657 km, 97.9° (Epoch: 07 August)

Event Time Altitude Azimuth Distance (km) Brightness Sun altitude
Exits shadow 00:22:17 19° 233° (SW) 1,537 ? -20.5°
Maximum altitude 00:24:01 24° 266° (W) 1,347 ? -20.6°
Drops below altitude 10° 00:27:39 10° 320° (NW) 2,055 ? -20.7°
Sets 00:30:15 0° 335° (NNW) 2,972 ? -20.8°
